Location: Bucharest
(44.4268°N, 26.1025°E)
Time: 12:26:31
(UTC+02:00)

N. Korean satellite - Visible Passes

Search period start: 20 January 2022 00:00
Search period end: 30 January 2022 00:00
Orbit: 446 x 491 km, 97.3° (Epoch: 19 January)

Date Brightness Start Highest point End Pass type
(mag) Time Alt. Az. Time Alt. Az. Time Alt. Az.
20 Jan 7.9 06:02:23 10° N 06:04:10 25° NNW 06:04:10 25° NNW visible
21 Jan 7.9 05:33:06 10° NNE 05:35:05 31° NNE 05:35:05 31° NNE visible
21 Jan 9.8 17:43:05 10° SW 17:45:01 14° W 17:46:57 10° WNW visible
22 Jan 8.7 05:04:12 10° NNE 05:05:59 24° NE 05:05:59 24° NE visible
22 Jan 8.2 06:38:04 10° NNW 06:40:03 16° WNW 06:40:03 16° WNW visible
23 Jan 9.7 04:35:52 10° NE 04:36:53 14° ENE 04:36:53 14° ENE visible
23 Jan 7.3 06:08:09 10° N 06:10:57 32° NW 06:10:57 32° NW visible
24 Jan 6.7 05:38:45 10° N 05:41:51 62° N 05:41:51 62° N visible
24 Jan 10.0 17:49:10 10° WSW 17:50:39 12° W 17:52:09 10° WNW visible
25 Jan 7.9 05:09:42 10° NNE 05:12:44 39° ENE 05:12:44 39° ENE visible
25 Jan 8.3 06:43:54 10° NNW 06:45:57 15° WNW 06:46:48 14° W visible
26 Jan 9.3 04:41:09 10° NE 04:43:38 19° E 04:43:38 19° E visible
26 Jan 7.4 06:13:46 10° N 06:16:58 30° WNW 06:17:41 27° W visible
27 Jan 6.4 05:44:14 10° N 05:47:52 69° WNW 05:48:35 52° SW visible
27 Jan 10.2 17:55:20 10° WSW 17:56:08 11° W 17:56:57 10° WNW visible
28 Jan 7.5 05:15:03 10° NNE 05:18:36 49° E 05:19:29 39° SE visible
28 Jan 8.4 06:49:38 10° NW 06:51:19 13° WNW 06:53:00 10° W visible
29 Jan 9.1 04:46:20 10° NE 04:49:12 22° E 04:50:25 18° ESE visible
29 Jan 7.6 06:19:15 10° NNW 06:22:18 26° WNW 06:24:29 15° WSW visible
